Location: Valdosta
(30.8330°N, 83.2790°W)
Time: 01:31:57
(UTC-04:00)

Amateur Radio Satellites - All Passes

Search period start: 24 April 2017 01:01
Search period end: 25 April 2017 01:01
Location: Valdosta, 30.8330°N, 83.2790°W

Satellite Date Start Highest point End Downlink Frequencies (MHz)
Time Altitude Azimuth
FO-29 24 Apr 01:03:50 01:07:37 20° 291° (WNW) 01:11:32 435.910
POLYITAN 1 24 Apr 01:07:56 01:12:05 63° 101° (E) 01:16:14 437.675
QB50P2 24 Apr 01:14:19 01:18:32 85° 104° (ESE) 01:22:44 145.880/145.840
DX 1 24 Apr 01:16:57 01:20:50 33° 73° (ENE) 01:24:46 434.975-435.025
ESTCUBE 1 24 Apr 01:24:21 01:27:19 17° 265° (W) 01:30:19 437.505/2401.250
AIST 2D 24 Apr 01:39:03 01:41:28 18° 288° (WNW) 01:43:52 435.315
NANOSAT C BR1 24 Apr 01:39:42 01:43:47 54° 284° (WNW) 01:47:51 145.865
SPROUT 24 Apr 01:41:33 01:45:37 43° 261° (W) 01:49:42 437.525
SRMSAT 24 Apr 01:44:12 01:48:46 23° 190° (S) 01:53:20 437.500
VELOX 1 24 Apr 01:50:32 01:54:30 32° 262° (W) 01:58:30 145.980
BUGSAT 1 24 Apr 01:51:02 01:54:53 46° 100° (E) 01:58:44 437.445
50 SAT 24 Apr 02:04:38 02:07:38 27° 262° (W) 02:10:40 437.505
EO-79 24 Apr 02:06:00 02:09:21 23° 289° (WNW) 02:12:41 145.935-145.965
DUCHIFAT 1 24 Apr 02:11:53 02:15:16 24° 288° (WNW) 02:18:38 145.980
Oscar 19 24 Apr 02:15:58 02:20:23 28° 97° (E) 02:24:46 437.125/150
UKube-1 24 Apr 02:26:17 02:30:28 49° 260° (W) 02:34:41 .
BEESAT 2 24 Apr 02:30:21 02:33:16 19° 250° (WSW) 02:36:09 435.950
PCSat 24 Apr 02:33:40 02:37:39 21° 106° (ESE) 02:41:37 145.827
ITUPSAT 1 24 Apr 02:44:51 02:47:38 16° 67° (ENE) 02:50:24 437.325
DX 1 24 Apr 02:54:20 02:57:02 16° 265° (W) 02:59:45 434.975-435.025
AO-7 24 Apr 03:24:56 03:27:21 11° 93° (E) 03:29:47 .
Gurwin Techsat 1B 24 Apr 03:30:40 03:35:59 88° 289° (WNW) 03:41:18 435.225
SRMSAT 24 Apr 03:35:11 03:37:21 12° 199° (SSW) 03:39:30 437.500
ITAMSAT 1 24 Apr 03:37:04 03:38:51 12° 93° (E) 03:40:40 435.822/435.867
BEESAT 24 Apr 03:41:48 03:46:31 72° 76° (ENE) 03:51:16 436.000
Oscar 19 24 Apr 03:55:14 03:59:33 27° 290° (WNW) 04:03:52 437.125/150
MOZHAYETS 4 24 Apr 04:03:20 04:07:44 52° 75° (ENE) 04:12:10
PCSat 24 Apr 04:15:40 04:20:42 39° 299° (WNW) 04:25:46 145.827
NO-84 24 Apr 04:18:48 04:18:53 10° 39° (NE) 04:18:58 435.350 FM
ITUPSAT 1 24 Apr 04:20:34 04:25:03 41° 260° (W) 04:29:33 437.325
YUBILEINY 24 Apr 04:38:48 04:46:11 32° 86° (E) 04:53:33 435.215
KKS-1 24 Apr 04:39:21 04:42:43 21° 70° (ENE) 04:46:04 437.445
CUBESAT XI-V 24 Apr 04:46:44 04:50:23 24° 71° (ENE) 04:54:04 437.345
AO-7 24 Apr 05:12:34 05:20:55 83° 107° (ESE) 05:29:16 .
ITAMSAT 1 24 Apr 05:13:31 05:18:36 60° 286° (WNW) 05:23:40 435.822/435.867
STARS 24 Apr 05:19:33 05:23:09 25° 71° (ENE) 05:26:44 437.465
MOZHAYETS 4 24 Apr 05:44:19 05:45:06 10° 267° (W) 05:45:53
NO-84 24 Apr 05:53:51 05:56:29 34° 233° (SW) 05:59:09 435.350 FM
DOVE 4 24 Apr 06:14:49 06:15:59 11° 91° (E) 06:17:08 437.250
KKS-1 24 Apr 06:15:18 06:19:03 26° 262° (W) 06:22:50 437.445
RS-15 24 Apr 06:19:17 06:24:14 13° 97° (E) 06:29:13 29.354- 29.394
CUBESAT XI-V 24 Apr 06:23:47 06:27:35 25° 264° (W) 06:31:25 437.345
YUBILEINY 24 Apr 06:34:29 06:42:37 43° 281° (WNW) 06:50:47 435.215
NUDT-PHONESAT 24 Apr 06:52:42 06:54:33 13° 95° (E) 06:56:22 437.300
STARS 24 Apr 06:55:58 06:59:22 22° 263° (W) 07:02:47 437.465
SO-50 24 Apr 06:56:12 07:00:07 27° 111° (ESE) 07:04:00 436.795
AO-7 24 Apr 07:07:34 07:12:40 18° 302° (WNW) 07:17:48 .
XW-2D 24 Apr 07:17:59 07:21:37 42° 99° (E) 07:25:14 145.860 - 145.880
M-CUBED/EXP-1 PRIME 24 Apr 07:23:19 07:27:13 30° 67° (ENE) 07:31:16 437.505
STRAND 1 24 Apr 07:23:47 07:27:47 24° 69° (ENE) 07:31:46 437.568
XW-2B 24 Apr 07:24:45 07:28:28 51° 100° (E) 07:32:11 145.730 - 145.750
LilacSat-2 24 Apr 07:32:08 07:35:58 72° 101° (E) 07:39:48 437.200
HO-68 24 Apr 07:34:23 07:37:37 13° 93° (E) 07:40:49 435.675
XW-2C 24 Apr 07:36:27 07:40:15 79° 101° (ESE) 07:44:04 145.795 - 145.815
CUTE-I 24 Apr 07:38:54 07:44:09 62° 101° (ESE) 07:49:23 437.470
KAITUO 1B 24 Apr 07:41:30 07:45:15 70° 101° (E) 07:49:00 145.475/437.950
DOVE 4 24 Apr 07:49:33 07:53:58 47° 286° (WNW) 07:58:08 437.250
XW-2F 24 Apr 08:04:23 08:07:59 42° 285° (WNW) 08:11:35 145.980 - 146.000
RS-15 24 Apr 08:22:47 08:34:37 78° 113° (ESE) 08:46:57 29.354- 29.394
NUDT-PHONESAT 24 Apr 08:25:16 08:28:25 27° 287° (WNW) 08:31:35 437.300
SO-50 24 Apr 08:36:41 08:40:29 25° 305° (NW) 08:44:15 436.795
CUTE 1.7 + AOD 2 24 Apr 08:48:21 08:52:37 62° 101° (E) 08:56:51 437.475
Tancredo 1 24 Apr 08:51:22 08:54:11 32° 130° (SE) 08:57:00 437.200
ISS 24 Apr 08:51:25 08:54:07 24° 129° (SE) 08:56:50 437.550
AAUSAT CUBESAT 2 24 Apr 08:56:12 08:59:16 20° 96° (E) 09:02:19 437.432
M-CUBED/EXP-1 PRIME 24 Apr 08:58:09 09:01:33 21° 261° (W) 09:05:05 437.505
STRAND 1 24 Apr 09:02:15 09:06:44 31° 262° (W) 09:11:14 437.568
Oscar 11 24 Apr 09:13:36 09:14:16 10° 93° (E) 09:14:56 .
SEEDS 24 Apr 09:13:58 09:18:14 81° 102° (ESE) 09:22:28 437.485
UWE-3 24 Apr 09:16:54 09:20:39 31° 98° (E) 09:24:26 435.000/436.395/437.385
HO-68 24 Apr 09:18:39 09:25:52 81° 286° (WNW) 09:33:04 435.675
XW-2A 24 Apr 09:20:42 09:23:45 33° 285° (WNW) 09:26:48 145.665 - 145.685
CUTE-I 24 Apr 09:21:16 09:23:36 13° 295° (WNW) 09:25:56 437.470
CUBEBUG 2 24 Apr 09:23:36 09:27:45 70° 101° (E) 09:31:57 437.445
PRISM 24 Apr 09:53:22 09:56:41 24° 71° (ENE) 10:00:01 437.425
DELFI C3 24 Apr 10:07:37 10:08:58 11° 93° (E) 10:10:18 145.870
ZACube-1 24 Apr 10:18:32 10:22:44 78° 283° (WNW) 10:27:02 437.345
AO-73 24 Apr 10:27:09 10:31:20 68° 283° (WNW) 10:35:36 145.935
ISS 24 Apr 10:27:59 10:30:32 21° 322° (NW) 10:33:06 437.550
Tancredo 1 24 Apr 10:28:12 10:30:10 16° 324° (NW) 10:32:09 437.200
AAUSAT CUBESAT 2 24 Apr 10:31:14 10:34:37 24° 288° (WNW) 10:37:59 437.432
RS-15 24 Apr 10:38:18 10:48:21 29° 315° (NW) 10:58:41 29.354- 29.394
Oscar 11 24 Apr 10:46:24 10:50:34 48° 285° (WNW) 10:54:45 .
TIGRISAT 24 Apr 10:48:40 10:53:03 62° 76° (ENE) 10:57:21 435.000
UWE-3 24 Apr 10:54:18 10:56:49 16° 290° (WNW) 10:59:22 435.000/436.395/437.385
FO-29 24 Apr 11:07:53 11:14:41 80° 77° (ENE) 11:20:39 435.910
UNISAT 6 24 Apr 11:09:00 11:13:26 67° 259° (W) 11:17:47 437.425
HO-68 24 Apr 11:10:09 11:12:28 12° 302° (WNW) 11:14:47 435.675
OBJECT BX 24 Apr 11:28:09 11:31:47 69° 283° (WNW) 11:35:25 145.990 - 145.960
PRISM 24 Apr 11:28:49 11:31:51 20° 264° (W) 11:34:54 437.425
O/OREOS (USA 219) 24 Apr 11:31:14 11:35:48 87° 108° (ESE) 11:40:25 437.305
DELFI C3 24 Apr 11:40:09 11:43:50 36° 286° (WNW) 11:47:29 145.870
ESTCUBE 1 24 Apr 11:47:25 11:47:53 10° 93° (E) 11:48:21 437.505/2401.250
POLYITAN 1 24 Apr 11:55:35 11:58:54 23° 71° (ENE) 12:02:13 437.675
QB50P2 24 Apr 12:01:37 12:05:18 29° 73° (ENE) 12:08:59 145.880/145.840
AIST 2D 24 Apr 12:06:51 12:10:17 63° 77° (ENE) 12:13:43 435.315
NANOSAT C BR1 24 Apr 12:25:55 12:29:59 49° 75° (ENE) 12:34:03 145.865
BUGSAT 1 24 Apr 12:36:20 12:38:58 16° 70° (ENE) 12:41:34 437.445
AO-85 24 Apr 12:38:00 12:40:14 14° 110° (ESE) 12:42:24 145.980
LO-87 24 Apr 12:41:12 12:44:45 66° 283° (WNW) 12:48:15 145.935 - 145.965
EO-79 24 Apr 12:51:47 12:55:59 67° 258° (WSW) 13:00:11 145.935-145.965
DUCHIFAT 1 24 Apr 12:57:05 13:01:16 72° 258° (WSW) 13:05:28 145.980
FO-29 24 Apr 12:57:54 12:59:54 11° 265° (W) 13:01:51 435.910
PCSat 24 Apr 13:08:35 13:13:53 52° 63° (ENE) 13:19:08 145.827
ESTCUBE 1 24 Apr 13:20:28 13:24:54 53° 285° (WNW) 13:29:18 437.505/2401.250
Oscar 19 24 Apr 13:27:50 13:31:51 24° 69° (ENE) 13:35:53 437.125/150
POLYITAN 1 24 Apr 13:31:19 13:34:33 21° 263° (W) 13:37:47 437.675
SPROUT 24 Apr 13:32:26 13:36:30 45° 100° (E) 13:40:34 437.525
50 SAT 24 Apr 13:33:24 13:36:16 24° 97° (E) 13:39:07 437.505
QB50P2 24 Apr 13:38:24 13:41:04 16° 265° (W) 13:43:45 145.880/145.840
VELOX 1 24 Apr 13:45:20 13:49:46 72° 102° (ESE) 13:54:09 145.980
BUGSAT 1 24 Apr 14:10:23 14:14:02 29° 262° (W) 14:17:41 437.445
AO-85 24 Apr 14:16:11 14:20:20 39° 300° (WNW) 14:24:14 145.980
UKube-1 24 Apr 14:18:39 14:22:42 39° 99° (E) 14:26:43 .
AO-7 24 Apr 14:19:43 14:22:06 11° 54° (NE) 14:24:29 .
BEESAT 2 24 Apr 14:39:20 14:41:46 16° 109° (ESE) 14:44:12 435.950
BEESAT 3 24 Apr 14:44:50 14:48:41 62° 115° (ESE) 14:52:35 437.485
DX 1 24 Apr 14:45:58 14:50:16 59° 285° (WNW) 14:54:31 434.975-435.025
Gurwin Techsat 1B 24 Apr 14:46:07 14:51:26 86° 77° (ENE) 14:56:46 435.225
ITAMSAT 1 24 Apr 14:50:34 14:52:09 11° 64° (ENE) 14:53:45 435.822/435.867
PCSat 24 Apr 14:53:39 14:56:46 16° 256° (WSW) 14:59:51 145.827
Oscar 19 24 Apr 15:06:24 15:10:56 31° 262° (W) 15:15:30 437.125/150
50 SAT 24 Apr 15:07:16 15:08:56 13° 290° (WNW) 15:10:36 437.505
SPROUT 24 Apr 15:10:43 15:11:57 11° 292° (WNW) 15:13:11 437.525
RS-15 24 Apr 15:22:00 15:28:19 15° 29° (NNE) 15:34:30 29.354- 29.394
BEESAT 24 Apr 15:47:46 15:51:51 28° 98° (E) 15:55:54 436.000
UKube-1 24 Apr 15:56:13 15:58:19 13° 292° (WNW) 16:00:25 .
MOZHAYETS 4 24 Apr 16:04:33 16:07:49 19° 95° (E) 16:11:06
AO-7 24 Apr 16:05:10 16:13:23 71° 70° (ENE) 16:21:37 .
BEESAT 2 24 Apr 16:15:46 16:19:13 29° 303° (WNW) 16:22:45 435.950
ITAMSAT 1 24 Apr 16:25:49 16:30:58 69° 257° (WSW) 16:36:09 435.822/435.867
ITUPSAT 1 24 Apr 16:26:03 16:30:49 77° 102° (ESE) 16:35:36 437.325
YUBILEINY 24 Apr 16:50:35 16:59:21 74° 83° (E) 17:08:09 435.215
Tancredo 1 24 Apr 16:56:46 16:59:37 33° 41° (NE) 17:02:28 437.200
ISS 24 Apr 16:59:25 17:02:16 27° 40° (NE) 17:05:07 437.550
JUGNU 24 Apr 17:02:01 17:03:34 11° 161° (SSE) 17:05:07 437.505
SO-50 24 Apr 17:12:03 17:16:31 66° 61° (ENE) 17:21:00 436.795
BEESAT 24 Apr 17:25:43 17:29:25 23° 290° (WNW) 17:33:06 436.000
RS-15 24 Apr 17:32:36 17:44:30 55° 56° (ENE) 17:55:44 29.354- 29.394
MOZHAYETS 4 24 Apr 17:40:55 17:44:57 30° 288° (WNW) 17:48:58
AO-7 24 Apr 18:01:03 18:06:36 19° 264° (W) 18:12:10 .
XW-2B 24 Apr 18:03:03 18:04:14 11° 69° (ENE) 18:05:25 145.730 - 145.750
LilacSat-2 24 Apr 18:09:59 18:12:14 15° 71° (ENE) 18:14:29 437.200
KKS-1 24 Apr 18:10:44 18:15:10 89° 103° (ESE) 18:19:35 437.445
XW-2C 24 Apr 18:13:34 18:15:56 16° 71° (ENE) 18:18:18 145.795 - 145.815
KAITUO 1B 24 Apr 18:17:46 18:19:42 14° 70° (ENE) 18:21:39 145.475/437.950
CUBESAT XI-V 24 Apr 18:24:42 18:29:23 67° 285° (WNW) 18:34:02 437.345
Tancredo 1 24 Apr 18:33:47 18:35:16 13° 234° (SW) 18:36:46 437.200
ISS 24 Apr 18:36:19 18:38:34 18° 233° (SW) 18:40:50 437.550
XW-2F 24 Apr 18:39:46 18:43:10 35° 75° (ENE) 18:46:35 145.980 - 146.000
JUGNU 24 Apr 18:47:31 18:51:58 22° 169° (S) 18:56:27 437.505
DOVE 4 24 Apr 18:47:40 18:52:57 87° 78° (ENE) 18:58:16 437.250
STARS 24 Apr 18:49:26 18:53:48 79° 283° (WNW) 18:58:08 437.465
YUBILEINY 24 Apr 18:49:52 18:55:08 18° 278° (W) 19:00:26 435.215
CUTE-I 24 Apr 18:55:09 19:00:25 59° 74° (ENE) 19:05:39 437.470
NUDT-PHONESAT 24 Apr 18:58:32 19:02:06 52° 76° (ENE) 19:05:40 437.300
XW-2D 24 Apr 19:27:40 19:31:11 39° 261° (W) 19:34:42 145.860 - 145.880
NO-84 24 Apr 19:30:08 19:32:38 16° 124° (ESE) 19:35:00 435.350 FM
XW-2B 24 Apr 19:34:40 19:38:03 33° 262° (W) 19:41:28 145.730 - 145.750
CUTE 1.7 + AOD 2 24 Apr 19:36:15 19:39:25 21° 71° (ENE) 19:42:36 437.475
HO-68 24 Apr 19:41:14 19:47:52 43° 69° (ENE) 19:54:31 435.675
STRAND 1 24 Apr 19:41:19 19:43:08 12° 93° (E) 19:44:58 437.568
LilacSat-2 24 Apr 19:43:12 19:46:16 24° 263° (W) 19:49:21 437.200
RS-15 24 Apr 19:45:52 19:56:21 37° 255° (WSW) 20:06:26 29.354- 29.394
XW-2A 24 Apr 19:46:44 19:49:34 26° 74° (ENE) 19:52:24 145.665 - 145.685
XW-2C 24 Apr 19:46:56 19:49:54 22° 263° (W) 19:52:53 145.795 - 145.815
KAITUO 1B 24 Apr 19:50:21 19:53:26 25° 263° (W) 19:56:32 145.475/437.950
SEEDS 24 Apr 20:00:31 20:03:59 26° 72° (ENE) 20:07:27 437.485
SRMSAT 24 Apr 20:06:50 20:09:52 14° 163° (SSE) 20:12:54 437.500
UWE-3 24 Apr 20:10:08 20:12:16 14° 69° (ENE) 20:14:22 435.000/436.395/437.385
CUBEBUG 2 24 Apr 20:16:25 20:20:16 29° 73° (ENE) 20:24:00 437.445
JUGNU 24 Apr 20:35:27 20:40:28 28° 179° (S) 20:45:31 437.505
CUTE-I 24 Apr 20:38:27 20:40:42 13° 267° (W) 20:42:59 437.470
M-CUBED/EXP-1 PRIME 24 Apr 20:41:39 20:45:37 46° 103° (ESE) 20:49:16 437.505
NO-84 24 Apr 21:06:34 21:10:01 33° 313° (NW) 21:13:12 435.350 FM
ZACube-1 24 Apr 21:08:55 21:12:51 38° 74° (ENE) 21:16:43 437.345
CUTE 1.7 + AOD 2 24 Apr 21:11:46 21:15:05 23° 264° (W) 21:18:26 437.475
AAUSAT CUBESAT 2 24 Apr 21:14:42 21:18:49 78° 260° (W) 21:22:59 437.432
AO-73 24 Apr 21:17:06 21:21:06 43° 75° (ENE) 21:25:03 145.935
STRAND 1 24 Apr 21:17:34 21:22:34 58° 285° (WNW) 21:27:34 437.568
XW-2A 24 Apr 21:21:33 21:22:18 11° 266° (W) 21:23:03 145.665 - 145.685
HO-68 24 Apr 21:29:40 21:35:36 28° 263° (W) 21:41:36 435.675
Oscar 11 24 Apr 21:35:13 21:39:26 61° 76° (ENE) 21:43:40 .
SEEDS 24 Apr 21:36:43 21:39:36 18° 265° (W) 21:42:30 437.485
UWE-3 24 Apr 21:44:19 21:48:22 38° 261° (W) 21:52:20 435.000/436.395/437.385
O/OREOS (USA 219) 24 Apr 21:46:47 21:51:21 67° 71° (ENE) 21:55:51 437.305
SRMSAT 24 Apr 21:53:41 21:58:28 25° 172° (S) 22:03:14 437.500
CUBEBUG 2 24 Apr 21:53:47 21:56:49 18° 264° (W) 21:59:48 437.445
OBJECT BX 24 Apr 22:01:17 22:03:58 20° 72° (ENE) 22:06:39 145.990 - 145.960
M-CUBED/EXP-1 PRIME 24 Apr 22:18:29 22:19:29 11° 299° (WNW) 22:20:28 437.505
DELFI C3 24 Apr 22:19:30 22:23:21 53° 76° (ENE) 22:27:14 145.870
JUGNU 24 Apr 22:24:17 22:29:00 24° 189° (S) 22:33:43 437.505
TIGRISAT 24 Apr 22:46:20 22:49:21 19° 96° (E) 22:52:24 435.000
ZACube-1 24 Apr 22:47:27 22:49:12 12° 266° (W) 22:50:57 437.345
AO-85 24 Apr 22:52:09 22:55:45 31° 59° (ENE) 22:59:31 145.980
AO-73 24 Apr 22:56:32 22:57:28 11° 266° (W) 22:58:23 145.935
UNISAT 6 24 Apr 23:06:04 23:10:01 36° 99° (E) 23:14:01 437.425
LO-87 24 Apr 23:12:32 23:15:12 19° 72° (ENE) 23:17:52 145.935 - 145.965
PRISM 24 Apr 23:14:10 23:18:20 84° 102° (ESE) 23:22:26 437.425
OBJECT BX 24 Apr 23:35:05 23:37:31 17° 264° (W) 23:39:58 145.990 - 145.960
SRMSAT 24 Apr 23:42:06 23:47:09 28° 182° (S) 23:52:11 437.500
FO-29 25 Apr 00:07:34 00:12:46 71° 284° (WNW) 00:18:22 435.910
ESTCUBE 1 25 Apr 00:14:03 00:18:30 69° 75° (ENE) 00:22:59 437.505/2401.250
JUGNU 25 Apr 00:14:37 00:17:26 14° 198° (SSW) 00:20:15 437.505
NANOSAT C BR1 25 Apr 00:17:35 00:19:10 12° 94° (E) 00:20:46 145.865
SPROUT 25 Apr 00:21:18 00:24:11 18° 70° (ENE) 00:27:04 437.525
TIGRISAT 25 Apr 00:22:23 00:25:58 26° 288° (WNW) 00:29:36 435.000
AO-85 25 Apr 00:33:21 00:35:53 16° 250° (WSW) 00:38:31 145.980
VELOX 1 25 Apr 00:37:13 00:41:09 31° 72° (ENE) 00:45:05 145.980
BEESAT 2 25 Apr 00:38:12 00:41:41 27° 57° (ENE) 00:45:08 435.950
EO-79 25 Apr 00:42:08 00:45:46 28° 98° (E) 00:49:23 145.935-145.965
BEESAT 3 25 Apr 00:43:53 00:47:53 82° 244° (WSW) 00:51:50 437.485
UNISAT 6 25 Apr 00:44:07 00:46:24 14° 291° (WNW) 00:48:41 437.425
LO-87 25 Apr 00:46:00 00:48:30 18° 264° (W) 00:51:01 145.935 - 145.965
DUCHIFAT 1 25 Apr 00:46:51 00:50:21 26° 97° (E) 00:53:50 145.980
